N395T KACK-5B2

Flight info

Callsign N395T
Flight time N/A
Altitude 16000
Route MVY PVD V146 ALB
Aircraft PC12/L-SDFGRWY/S

Departure

Time 2026-04-29 12:13
Airport Nantucket Memorial Airport (KACK)

Arrival

Time N/A
Airport 5B2
Time Latitude Longitude Altitude Speed Heading
2026-04-29 11:58 41.25589 -70.06497 46 ft 0 kts 317°
2026-04-29 12:09 41.25589 -70.06498 46 ft 1 kts 317°
2026-04-29 12:09 41.25584 -70.06533 46 ft 7 kts 226°
2026-04-29 12:09 41.25543 -70.06588 45 ft 6 kts 221°
2026-04-29 12:10 41.25497 -70.06566 45 ft 10 kts 135°
2026-04-29 12:10 41.25448 -70.06500 44 ft 8 kts 135°
2026-04-29 12:10 41.25394 -70.06534 43 ft 13 kts 225°
2026-04-29 12:10 41.25319 -70.06632 42 ft 17 kts 225°
2026-04-29 12:11 41.25226 -70.06755 40 ft 21 kts 225°
2026-04-29 12:11 41.25115 -70.06902 38 ft 24 kts 225°
2026-04-29 12:11 41.24994 -70.07064 36 ft 25 kts 225°
2026-04-29 12:11 41.24866 -70.07234 34 ft 26 kts 225°
2026-04-29 12:12 41.24787 -70.07333 32 ft 11 kts 206°
2026-04-29 12:12 41.24731 -70.07270 31 ft 11 kts 101°
2026-04-29 12:12 41.24742 -70.07192 32 ft 8 kts 54°
2026-04-29 12:12 41.24835 -70.07067 35 ft 38 kts 45°
2026-04-29 12:13 41.25114 -70.06698 44 ft 73 kts 45°
2026-04-29 12:13 41.25500 -70.06179 223 ft 83 kts 45°
2026-04-29 12:13 41.25918 -70.05594 457 ft 91 kts 43°
2026-04-29 12:13 41.26459 -70.05041 730 ft 103 kts 19°
2026-04-29 12:14 41.27174 -70.04898 1118 ft 110 kts 358°
2026-04-29 12:14 41.27980 -70.05102 1500 ft 121 kts 347°
2026-04-29 12:14 41.28828 -70.05357 1877 ft 133 kts 353°
2026-04-29 12:14 41.29770 -70.05758 2159 ft 149 kts 339°
2026-04-29 12:15 41.30749 -70.06144 2547 ft 150 kts 348°
2026-04-29 12:15 41.31752 -70.06643 2979 ft 153 kts 344°
2026-04-29 12:15 41.32763 -70.07102 3396 ft 155 kts 343°
2026-04-29 12:15 41.33545 -70.08204 3668 ft 169 kts 310°
2026-04-29 12:16 41.34197 -70.09474 4154 ft 168 kts 308°
2026-04-29 12:16 41.34812 -70.10817 4566 ft 169 kts 305°
2026-04-29 12:16 41.35253 -70.12284 5018 ft 174 kts 291°
2026-04-29 12:16 41.35591 -70.13875 5346 ft 180 kts 291°
2026-04-29 12:17 41.35952 -70.15482 5751 ft 181 kts 292°
2026-04-29 12:17 41.36346 -70.17059 6270 ft 176 kts 288°
2026-04-29 12:17 41.36647 -70.18635 6733 ft 177 kts 281°
2026-04-29 12:17 41.36761 -70.20289 7121 ft 182 kts 275°
2026-04-29 12:18 41.36825 -70.22077 7234 ft 199 kts 274°
2026-04-29 12:18 41.36891 -70.23916 7506 ft 202 kts 272°
2026-04-29 12:18 41.36898 -70.25843 7480 ft 215 kts 268°
2026-04-29 12:18 41.36250 -70.27581 7545 ft 219 kts 221°
2026-04-29 12:19 41.34849 -70.28413 6893 ft 229 kts 190°
2026-04-29 12:19 41.33174 -70.28369 5888 ft 252 kts 169°
2026-04-29 12:19 41.31432 -70.27787 4927 ft 261 kts 161°
2026-04-29 12:19 41.29760 -70.27075 4431 ft 243 kts 159°
2026-04-29 12:20 41.28331 -70.26098 4147 ft 219 kts 140°
2026-04-29 12:20 41.27291 -70.24776 3911 ft 200 kts 126°
2026-04-29 12:20 41.26466 -70.23305 3511 ft 194 kts 119°
2026-04-29 12:20 41.25732 -70.21877 3330 ft 183 kts 117°
2026-04-29 12:21 41.25109 -70.20450 3167 ft 177 kts 113°
2026-04-29 12:21 41.24521 -70.18984 2984 ft 182 kts 111°
2026-04-29 12:21 41.23979 -70.17445 2752 ft 186 kts 107°
2026-04-29 12:21 41.23524 -70.15877 2497 ft 185 kts 103°
2026-04-29 12:22 41.23148 -70.14286 2198 ft 176 kts 99°
2026-04-29 12:22 41.22800 -70.12827 1797 ft 155 kts 102°
2026-04-29 12:22 41.22453 -70.11524 1294 ft 146 kts 96°
2026-04-29 12:22 41.22511 -70.10295 910 ft 125 kts 60°
2026-04-29 12:23 41.22985 -70.09418 636 ft 110 kts 38°
2026-04-29 12:23 41.23481 -70.08800 494 ft 91 kts 40°
2026-04-29 12:23 41.23923 -70.08230 334 ft 84 kts 40°
2026-04-29 12:23 41.24334 -70.07715 176 ft 80 kts 42°
2026-04-29 12:24 41.24720 -70.07216 74 ft 74 kts 44°
2026-04-29 12:24 41.25062 -70.06767 37 ft 60 kts 43°
2026-04-29 12:24 41.25234 -70.06541 40 ft 21 kts 45°
2026-04-29 12:24 41.25319 -70.06428 43 ft 13 kts 43°
2026-04-29 12:25 41.25375 -70.06404 44 ft 6 kts 331°
2026-04-29 12:25 41.25394 -70.06429 44 ft 6 kts 314°
2026-04-29 12:25 41.25480 -70.06541 44 ft 11 kts 315°
2026-04-29 12:26 41.25527 -70.06546 45 ft 6 kts 47°
2026-04-29 12:26 41.25552 -70.06530 45 ft 4 kts 316°
2026-04-29 12:26 41.25558 -70.06539 45 ft 0 kts 315°
2026-04-29 12:29 41.25562 -70.06547 45 ft 5 kts 296°
2026-04-29 12:29 41.25515 -70.06590 45 ft 14 kts 145°
2026-04-29 12:30 41.25440 -70.06494 44 ft 13 kts 158°
2026-04-29 12:30 41.25360 -70.06574 43 ft 17 kts 225°
2026-04-29 12:30 41.25266 -70.06701 41 ft 21 kts 225°
2026-04-29 12:30 41.25154 -70.06851 39 ft 24 kts 224°
2026-04-29 12:31 41.25027 -70.07019 37 ft 28 kts 225°
2026-04-29 12:31 41.24887 -70.07206 34 ft 29 kts 225°
2026-04-29 12:31 41.24779 -70.07333 32 ft 11 kts 184°
2026-04-29 12:31 41.24728 -70.07250 31 ft 13 kts 88°
2026-04-29 12:32 41.24771 -70.07151 34 ft 20 kts 45°
2026-04-29 12:32 41.24979 -70.06876 37 ft 62 kts 44°
2026-04-29 12:32 41.25333 -70.06410 63 ft 76 kts 44°